Estación de Lontue
Ultimos registro cada 15 minutos 26
| N° | Estación | Fecha / Hora | Temperatura | Humedad | Lluvia | Velocidad | Dirección | Radiación | Presion |
| 26 | Lontue | 04-05-2026 06:15 | 7,3 | 89,9 | 0 | 0 | 154 | 0,6 | 991,2 |
| 25 | Lontue | 04-05-2026 06:00 | 7,8 | 89,1 | 0 | 0 | 154 | 0,6 | 991,2 |
| 24 | Lontue | 04-05-2026 05:45 | 8,3 | 89,1 | 0 | 0 | 154 | 0,6 | 991,1 |
| 23 | Lontue | 04-05-2026 05:30 | 8,6 | 89,2 | 0 | 0 | 154 | 0,6 | 991,2 |
| 22 | Lontue | 04-05-2026 05:15 | 8,5 | 89,5 | 0 | 0 | 154 | 0,6 | 991,2 |
| 21 | Lontue | 04-05-2026 05:00 | 8,6 | 89,7 | 0 | 0 | 154 | 0,6 | 991,3 |
| 20 | Lontue | 04-05-2026 04:45 | 8,9 | 89,4 | 0 | 0 | 154 | 0,6 | 990,9 |
| 19 | Lontue | 04-05-2026 04:30 | 9,3 | 89 | 0 | 0 | 154 | 0,6 | 991,1 |
| 18 | Lontue | 04-05-2026 04:15 | 9,5 | 89,1 | 0 | 0 | 154 | 0,6 | 991,1 |
| 17 | Lontue | 04-05-2026 04:00 | 9,4 | 89,2 | 0 | 0 | 154 | 0,6 | 991,1 |
| 16 | Lontue | 04-05-2026 03:45 | 9,6 | 88,6 | 0 | 0 | 154 | 0,6 | 991 |
| 15 | Lontue | 04-05-2026 03:30 | 9,8 | 86,6 | 0 | 0 | 154 | 0,6 | 991,4 |
| 14 | Lontue | 04-05-2026 03:15 | 10,2 | 85,4 | 0 | 0 | 154 | 0,6 | 991,4 |
| 13 | Lontue | 04-05-2026 03:00 | 10,3 | 86,2 | 0 | 0 | 154 | 0,6 | 991,5 |
| 12 | Lontue | 04-05-2026 02:45 | 9,8 | 88,9 | 0 | 0,4 | 154 | 0,6 | 991,7 |
| 11 | Lontue | 04-05-2026 02:30 | 9,8 | 89,3 | 0 | 0,4 | 154 | 0,6 | 991,9 |
| 10 | Lontue | 04-05-2026 02:15 | 9,9 | 89,5 | 0 | 0 | 156 | 0,6 | 992,1 |
| 9 | Lontue | 04-05-2026 02:00 | 9,9 | 89,8 | 0 | 0 | 156 | 0,6 | 992 |
| 8 | Lontue | 04-05-2026 01:45 | 10,1 | 89,6 | 0 | 0 | 157 | 0,6 | 992,3 |
| 7 | Lontue | 04-05-2026 01:30 | 10,2 | 88,9 | 0 | 0 | 157 | 0,6 | 992,3 |
| 6 | Lontue | 04-05-2026 01:15 | 10,1 | 88,4 | 0 | 0 | 157 | 0,6 | 992 |
| 5 | Lontue | 04-05-2026 01:00 | 10,3 | 88,1 | 0 | 0 | 156 | 0,6 | 992,2 |
| 4 | Lontue | 04-05-2026 00:45 | 10,4 | 87,4 | 0 | 0 | 156 | 0,6 | 992,3 |
| 3 | Lontue | 04-05-2026 00:30 | 10,6 | 87 | 0 | 0 | 156 | 0,6 | 992,4 |
| 2 | Lontue | 04-05-2026 00:15 | 10,8 | 86,2 | 0 | 0 | 156 | 0,6 | 992,8 |
| 1 | Lontue | 04-05-2026 00:00 | 11 | 85,9 | 0 | 0 | 154 | 0,6 | 992,9 |